Location: Hilton Head Island
(32.2163°N, 80.7526°W)
Time: 08:13:02
(UTC-04:00)

Tiros 1 despin weight - Pass Details

Date: 17 February 2026
Orbit: 555 x 593 km, 48.2° (Epoch: 17 March)

Event Time Altitude Azimuth Distance (km) Brightness Sun altitude
Rises 20:15:07 0° 320° (NW) 2,731 ? -26.9°
Reaches altitude 10° 20:17:56 10° 339° (NNW) 1,837 ? -27.5°
Enters shadow 20:18:37 13° 346° (NNW) 1,664 ? -27.6°
Maximum altitude 20:20:54 19° 24° (NNE) 1,376 - -28.1°
Drops below altitude 10° 20:23:54 10° 70° (ENE) 1,843 - -28.7°
Sets 20:26:43 0° 89° (E) 2,744 - -29.3°
